Flag for Netherlands Weather past 2 weeks in Dordrecht, Netherlands

Now
37 °F

Fog.


Feels Like: 37 °F
Forecast: 46 / 58 °F
Wind: 1 mph from North

Location: Rotterdam Zestienhoven Airport

Current Time: May 24, 2015 at 6:14:00 AM

Latest Report: May 24, 2015 at 5:25 AM


Visibility: 1 mi

Pressure: 30.15 "Hg

Humidity: 100%

Dew point: 37 °F

Location of DordrechtLocation

Historic Weather in Dordrecht — Graph

°F

Dordrecht temperature yesterday

Maximum temperature yesterday: 59 °F (at 1:55 PM)
Minimum temperature yesterday: 48 °F (at 10:55 PM)
Average temperature yesterday: 56 °F

Past Weeks' High & Low Weather Summary

 TemperatureHumidityPressure
High75 °F (May 11, 1:25 PM)100% (May 10, 5:25 AM)30.33 "Hg (May 10, 5:25 AM)
Low39 °F (May 24, 3:55 AM)48% (May 17, 2:55 PM)29.59 "Hg (May 18, 6:55 PM)
Average54 °F74%30.07 "Hg
* Reported May 9 4:25 AM — May 24 4:55 AM, Dordrecht, Weather by CustomWeather, © 2015

Note: Actual official high and low records may vary slightly from our data, if they occured in-between our weather recording intervals... More about our weather records

Advertising

Dordrecht weather history for previous 24 hours

 ConditionsComfort  
Time TempWeatherWind HumidityBarometerVisibility
4:55 AM
Sun, May 24
39 °FChilly.1 mph100%30.15 "Hg4 mi
4:25 AM41 °FQuite cool.1 mph93%30.18 "HgN/A
3:55 AM39 °FClear.No wind100%30.18 "HgN/A
3:25 AM41 °FQuite cool.2 mph93%30.18 "HgN/A
2:55 AM41 °FQuite cool.2 mph100%30.18 "HgN/A
2:25 AM41 °FQuite cool.2 mph93%30.18 "HgN/A
1:55 AM43 °FQuite cool.2 mph87%30.18 "HgN/A
1:25 AM45 °FQuite cool.3 mph81%30.21 "HgN/A
12:55 AM46 °FClear.3 mph82%30.21 "HgN/A
12:25 AM46 °FCool.3 mph82%30.21 "HgN/A
11:55 PM
Sat, May 23
48 °FCool.6 mph76%30.21 "HgN/A
11:25 PM48 °FCool.6 mph76%30.21 "HgN/A
10:55 PM48 °FCool.6 mph76%30.21 "HgN/A
10:25 PM50 °FClear.5 mph71%30.21 "HgN/A
9:55 PM52 °FCool.7 mph67%30.21 "HgN/A
9:25 PM52 °FCool.6 mph67%30.21 "HgN/A
8:55 PM54 °FCool.8 mph63%30.18 "HgN/A
8:25 PM55 °FClear.10 mph59%30.18 "HgN/A
7:55 PM57 °FClear.10 mph59%30.18 "HgN/A
7:25 PM59 °FClear.10 mph55%30.18 "HgN/A
6:55 PM59 °FPassing clouds.12 mph63%30.18 "HgN/A
6:25 PM59 °FClear.13 mph59%30.18 "HgN/A
5:55 PM59 °FClear.13 mph63%30.18 "HgN/A
5:25 PM59 °FClear.13 mph63%30.18 "HgN/A
4:55 PM59 °FClear.12 mph63%30.18 "HgN/A
4:25 PM59 °FClear.12 mph68%30.18 "HgN/A
3:55 PM59 °FClear.9 mph63%30.21 "HgN/A
3:25 PM59 °FClear.10 mph63%30.21 "HgN/A
2:55 PM59 °FClear.10 mph63%30.21 "HgN/A
2:25 PM59 °FPassing clouds.10 mph68%30.21 "HgN/A
1:55 PM59 °FBroken clouds.12 mph68%30.21 "HgN/A
1:25 PM57 °FOvercast.12 mph72%30.21 "HgN/A
12:55 PM57 °FMore clouds than sun.9 mph77%30.21 "HgN/A
12:25 PM55 °FMostly cloudy.13 mph82%30.21 "HgN/A
11:55 AM57 °FMostly cloudy.13 mph82%30.21 "HgN/A
11:25 AM55 °FMostly cloudy.12 mph88%30.21 "HgN/A
10:55 AM54 °FMostly cloudy.14 mph94%30.21 "HgN/A
10:25 AM57 °FPartly sunny.10 mph88%30.21 "Hg6 mi
9:55 AM57 °FDrizzle. Cloudy.7 mph88%30.18 "Hg4 mi
9:25 AM57 °FDrizzle. Mostly cloudy.7 mph88%30.18 "Hg4 mi
8:55 AM57 °FMore clouds than sun.6 mph88%30.18 "HgN/A
8:25 AM57 °FLow clouds.7 mph88%30.18 "Hg6 mi
7:55 AM57 °FMostly cloudy.5 mph88%30.18 "Hg5 mi
7:25 AM55 °FLow clouds.3 mph94%30.15 "Hg4 mi
6:55 AM55 °FFog.3 mph94%30.15 "Hg3 mi
6:25 AM55 °FClear.2 mph94%30.15 "Hg4 mi
Weather by CustomWeather, © 2015

See weather overviewHow to use our weather pages